Regional Weather Roundup
Issued by NWS

Home | Current Version | Previous Version | Graphics & Text | Print | Product List | Glossary On
Versions: 1 2 3 4 5 6 7 8 9 10 11 12 13 14 15 16 17 18 19 20 21 22 23 24 25 26 27 28 29 30 31 32 33 34 35 36 37 38 39 40 41 42 43 44 45 46 47 48 49 50
000
ASUS43 KFSD 031902
RWRSD

WEATHER ROUNDUP FOR SOUTH DAKOTA
NATIONAL WEATHER SERVICE SIOUX FALLS SD
200 PM CDT MON AUG 03 2015

NOTE: "FAIR" INDICATES FEW OR NO CLOUDS BELOW 12,000 FEET WITH NO
SIGNIFICANT WEATHER AND/OR OBSTRUCTIONS TO VISIBILITY.


SDZ001>005-009-010-012>017-032000-
NORTHWEST AND NORTH CENTRAL SOUTH DAKOTA

CITY           SKY/WX    TMP DP  RH WIND       PRES   REMARKS
BUFFALO          N/A     82  51  34 E9        29.96F
FAITH            N/A     82  49  31 VRB6      30.01F
MOBRIDGE       SUNNY     81  54  39 NW8       29.98F
$$

SDZ012>016-024>037-041>051-057-063-072>074-032000-
SOUTHWEST AND SOUTH CENTRAL SOUTH DAKOTA

CITY           SKY/WX    TMP DP  RH WIND       PRES   REMARKS
RAPID CTY ARPT SUNNY     82  57  42 SE10G17   30.02F
PIERRE         SUNNY     82  53  36 E6        29.98F
CUSTER         MOSUNNY   73  56  54 E9G17     30.14F
ELLSWORTH AFB  SUNNY     82  54  38 S12G20    30.02F
PHILIP         SUNNY     82  57  42 SE8       29.99F
PINE RIDGE     MOSUNNY   82  61  48 E8        30.01F
WINNER         FAIR      84  54  35 VRB6      30.01S
$$

SDZ004>011-016>023-039-040-032000-
NORTHEAST SOUTH DAKOTA

CITY           SKY/WX    TMP DP  RH WIND       PRES   REMARKS
ABERDEEN       SUNNY     80  50  34 N10G20    29.98F
WATERTOWN      SUNNY     77  51  40 NW10      29.98F
BROOKINGS      PTSUNNY   75  54  46 W10G16    30.00F
SISSETON         N/A     77  51  40 N12G20    29.95F
$$

SDZ017-020-022-023-036>040-048>070-032000-
SOUTHEAST SOUTH DAKOTA

CITY           SKY/WX    TMP DP  RH WIND       PRES   REMARKS
SIOUX FALLS    MOSUNNY   79  56  45 VRB3      29.99F
HURON          SUNNY     81  53  37 CALM      29.98S
CHAMBERLAIN    SUNNY     80  60  51 SE3       30.00S
MITCHELL       SUNNY     82  58  43 VRB6      29.99F
YANKTON        SUNNY     79  61  53 CALM      29.98S
$$

ABBREVIATIONS USED IN REMARKS
   TC - TEMPERATURE IN CELSIUS
  WCI - WIND CHILL INDEX
   HX - HEAT INDEX
  VSB - VISIBILITY




USA.gov is the U.S. government's official web portal to all federal, state and local government web resources and services.